Year,Month,Day,Hour,Minute,Value (Times are PST for barometer in hPa)
2022,05,16,00,00,987.20
2022,05,16,00,01,987.20
2022,05,16,00,02,987.20
2022,05,16,00,03,987.20
2022,05,16,00,04,987.20
2022,05,16,00,05,987.20
2022,05,16,00,06,987.20
2022,05,16,00,07,987.20
2022,05,16,00,08,987.20
2022,05,16,00,09,987.20
2022,05,16,00,10,987.20
2022,05,16,00,11,987.20
2022,05,16,00,12,987.20
2022,05,16,00,13,987.20
2022,05,16,00,14,987.20
2022,05,16,00,15,987.20
2022,05,16,00,16,987.20
2022,05,16,00,17,987.20
2022,05,16,00,18,987.20
2022,05,16,00,19,987.20
2022,05,16,00,20,987.20
2022,05,16,00,21,987.20
2022,05,16,00,22,987.20
2022,05,16,00,23,987.20
2022,05,16,00,24,987.20
2022,05,16,00,25,987.20
2022,05,16,00,26,987.20
2022,05,16,00,27,982.54
2022,05,16,00,28,981.99
2022,05,16,00,29,981.99
2022,05,16,00,30,981.99
2022,05,16,00,31,981.99
2022,05,16,00,32,981.99
2022,05,16,00,33,981.99
2022,05,16,00,34,981.99
2022,05,16,00,35,981.99
2022,05,16,00,36,981.99
2022,05,16,00,37,981.99
2022,05,16,00,38,981.99
2022,05,16,00,39,981.99
2022,05,16,00,40,981.99
2022,05,16,00,41,981.99
2022,05,16,00,42,981.99
2022,05,16,00,43,981.99
2022,05,16,00,44,980.06
2022,05,16,00,45,979.85
2022,05,16,00,46,979.85
2022,05,16,00,47,979.85
2022,05,16,00,48,979.85
2022,05,16,00,49,979.85
2022,05,16,00,50,979.85
2022,05,16,00,51,979.85
2022,05,16,00,52,979.85
2022,05,16,00,53,979.85
2022,05,16,00,54,979.85
2022,05,16,00,55,979.85
2022,05,16,00,56,979.85
2022,05,16,00,57,979.85
2022,05,16,00,58,979.85
2022,05,16,00,59,982.82
2022,05,16,01,00,983.57
2022,05,16,01,01,983.61
2022,05,16,01,02,983.61
2022,05,16,01,03,983.61
2022,05,16,01,04,983.61
2022,05,16,01,05,983.61
2022,05,16,01,06,983.61
2022,05,16,01,07,983.61
2022,05,16,01,08,983.61
2022,05,16,01,09,983.61
2022,05,16,01,10,983.61
2022,05,16,01,11,983.61
2022,05,16,01,12,983.61
2022,05,16,01,13,983.61
2022,05,16,01,14,983.61
2022,05,16,01,15,983.61
2022,05,16,01,16,983.61
2022,05,16,01,17,983.61
2022,05,16,01,18,983.61
2022,05,16,01,19,983.61
2022,05,16,01,20,983.61
2022,05,16,01,21,983.61
2022,05,16,01,22,983.61
2022,05,16,01,23,983.61
2022,05,16,01,24,983.61
2022,05,16,01,25,983.61
2022,05,16,01,26,983.61
2022,05,16,01,27,983.61
2022,05,16,01,28,983.61
2022,05,16,01,29,983.61
2022,05,16,01,30,983.61
2022,05,16,01,31,983.61
2022,05,16,01,32,984.43
2022,05,16,01,33,984.27
2022,05,16,01,34,984.22
2022,05,16,01,35,984.22
2022,05,16,01,36,984.22
2022,05,16,01,37,984.22
2022,05,16,01,38,984.22
2022,05,16,01,39,984.22
2022,05,16,01,40,984.22
2022,05,16,01,41,984.22
2022,05,16,01,42,984.22
2022,05,16,01,43,984.22
2022,05,16,01,44,984.22
2022,05,16,01,45,984.22
2022,05,16,01,46,984.22
2022,05,16,01,47,984.22
2022,05,16,01,48,984.22
2022,05,16,01,49,984.22
2022,05,16,01,50,984.22
2022,05,16,01,51,984.22
2022,05,16,01,52,984.25
2022,05,16,01,53,984.25
2022,05,16,01,54,984.25
2022,05,16,01,55,984.25
2022,05,16,01,56,984.25
2022,05,16,01,57,984.25
2022,05,16,01,58,984.25
2022,05,16,01,59,984.25
2022,05,16,02,00,984.25
2022,05,16,02,01,984.25
2022,05,16,02,02,984.25
2022,05,16,02,03,984.25
2022,05,16,02,04,984.25
2022,05,16,02,05,984.25
2022,05,16,02,06,984.25
2022,05,16,02,07,995.31
2022,05,16,02,08,996.61
2022,05,16,02,09,996.61
2022,05,16,02,10,996.61
2022,05,16,02,11,996.61
2022,05,16,02,12,996.61
2022,05,16,02,13,996.61
2022,05,16,02,14,993.53
2022,05,16,02,15,992.99
2022,05,16,02,16,992.69
2022,05,16,02,17,992.65
2022,05,16,02,18,992.65
2022,05,16,02,19,992.65
2022,05,16,02,20,992.65
2022,05,16,02,21,991.04
2022,05,16,02,22,990.76
2022,05,16,02,23,990.76
2022,05,16,02,24,990.76
2022,05,16,02,25,990.76
2022,05,16,02,26,990.76
2022,05,16,02,27,991.13
2022,05,16,02,28,991.23
2022,05,16,02,29,991.45
2022,05,16,02,30,991.44
2022,05,16,02,31,991.03
2022,05,16,02,32,990.96
2022,05,16,02,33,990.96
2022,05,16,02,34,990.96
2022,05,16,02,35,990.96
2022,05,16,02,36,990.96
2022,05,16,02,37,990.96
2022,05,16,02,38,990.96
2022,05,16,02,39,990.96
2022,05,16,02,40,990.96
2022,05,16,02,41,990.96
2022,05,16,02,42,989.20
2022,05,16,02,43,989.02
2022,05,16,02,44,989.03
2022,05,16,02,45,989.03
2022,05,16,02,46,989.03
2022,05,16,02,47,989.03
2022,05,16,02,48,989.03
2022,05,16,02,49,989.03
2022,05,16,02,50,989.03
2022,05,16,02,51,989.03
2022,05,16,02,52,989.03
2022,05,16,02,53,990.32
2022,05,16,02,54,990.73
2022,05,16,02,55,990.76
2022,05,16,02,56,990.76
2022,05,16,02,57,991.41
2022,05,16,02,58,991.53
2022,05,16,02,59,993.64
2022,05,16,03,00,994.30
2022,05,16,03,01,994.44
2022,05,16,03,02,994.45
2022,05,16,03,06,995.53
2022,05,16,03,07,995.53
2022,05,16,03,08,995.53
2022,05,16,03,09,995.53
2022,05,16,03,10,995.53
2022,05,16,03,11,995.53
2022,05,16,03,12,995.53
2022,05,16,03,13,995.53
2022,05,16,03,14,995.53
2022,05,16,03,15,995.53
2022,05,16,03,16,995.21
2022,05,16,03,17,989.16
2022,05,16,03,18,989.16
2022,05,16,03,19,989.16
2022,05,16,03,20,989.16
2022,05,16,03,21,989.12
2022,05,16,03,22,988.28
2022,05,16,03,23,988.28
2022,05,16,03,24,988.28
2022,05,16,03,25,988.28
2022,05,16,03,26,988.28
2022,05,16,03,27,988.50
2022,05,16,03,28,992.75
2022,05,16,03,29,992.75
2022,05,16,03,30,992.75
2022,05,16,03,31,992.75
2022,05,16,03,32,992.75
2022,05,16,03,33,992.75
2022,05,16,03,34,992.75
2022,05,16,03,35,992.75
2022,05,16,03,36,992.75
2022,05,16,03,37,992.75
2022,05,16,03,38,992.75
2022,05,16,03,39,992.75
2022,05,16,03,40,988.28
2022,05,16,03,41,988.28
2022,05,16,03,42,988.28
2022,05,16,03,43,988.28
2022,05,16,03,44,988.28
2022,05,16,03,45,988.28
2022,05,16,03,46,988.28
2022,05,16,03,47,988.28
2022,05,16,03,48,988.28
2022,05,16,03,49,988.28
2022,05,16,03,50,988.28
2022,05,16,03,51,988.28
2022,05,16,03,52,988.28
2022,05,16,03,53,988.28
2022,05,16,03,54,988.28
2022,05,16,03,55,988.28
2022,05,16,03,56,988.28
2022,05,16,03,57,988.28
2022,05,16,03,58,994.72
2022,05,16,03,59,994.72
2022,05,16,04,00,994.72
2022,05,16,04,01,994.72
2022,05,16,04,02,991.70
2022,05,16,04,03,991.70
2022,05,16,04,04,991.70
2022,05,16,04,05,991.70
2022,05,16,04,06,991.70
2022,05,16,04,07,991.70
2022,05,16,04,08,991.70
2022,05,16,04,09,991.70
2022,05,16,04,10,991.70
2022,05,16,04,11,991.70
2022,05,16,04,12,991.70
2022,05,16,04,13,991.70
2022,05,16,04,14,991.70
2022,05,16,04,15,991.85
2022,05,16,04,16,994.79
2022,05,16,04,17,994.79
2022,05,16,04,18,994.79
2022,05,16,04,19,994.79
2022,05,16,04,20,994.79
2022,05,16,04,21,994.79
2022,05,16,04,22,994.79
2022,05,16,04,23,994.79
2022,05,16,04,24,994.79
2022,05,16,04,25,994.79
2022,05,16,04,26,994.79
2022,05,16,04,27,994.79
2022,05,16,04,28,994.79
2022,05,16,04,29,994.79
2022,05,16,04,30,994.79
2022,05,16,04,31,994.79
2022,05,16,04,32,994.79
2022,05,16,04,33,994.79
2022,05,16,04,34,994.79
2022,05,16,04,35,994.79
2022,05,16,04,36,994.79
2022,05,16,04,37,994.79
2022,05,16,04,38,994.79
2022,05,16,04,39,994.79
2022,05,16,04,40,994.79
2022,05,16,04,41,994.79
2022,05,16,04,42,994.79
2022,05,16,04,43,994.79
2022,05,16,04,44,994.79
2022,05,16,04,45,994.79
2022,05,16,04,46,989.88
2022,05,16,04,47,989.88
2022,05,16,04,48,989.88
2022,05,16,04,49,989.88
2022,05,16,04,50,989.88
2022,05,16,04,51,989.88
2022,05,16,04,52,987.91
2022,05,16,04,53,987.91
2022,05,16,04,54,987.91
2022,05,16,04,55,987.91
2022,05,16,04,56,987.91
2022,05,16,04,57,987.91
2022,05,16,04,58,988.35
2022,05,16,04,59,988.35
2022,05,16,05,00,988.35
2022,05,16,05,01,988.35
2022,05,16,05,02,991.51
2022,05,16,05,03,991.60
2022,05,16,05,04,991.82
2022,05,16,05,05,991.40
2022,05,16,05,06,991.40
2022,05,16,05,07,991.40
2022,05,16,05,08,991.40
2022,05,16,05,09,991.40
2022,05,16,05,10,991.74
2022,05,16,05,11,991.74
2022,05,16,05,12,995.29
2022,05,16,05,13,995.29
2022,05,16,05,14,995.29
2022,05,16,05,15,995.29
2022,05,16,05,16,995.29
2022,05,16,05,17,995.29
2022,05,16,05,18,995.29
2022,05,16,05,19,995.29
2022,05,16,05,20,995.29
2022,05,16,05,21,995.29
2022,05,16,05,22,995.29
2022,05,16,05,23,995.29
2022,05,16,05,24,995.44
2022,05,16,05,25,998.27
2022,05,16,05,26,998.27
2022,05,16,05,27,998.27
2022,05,16,05,28,998.27
2022,05,16,05,29,998.27
2022,05,16,05,30,998.27
2022,05,16,05,31,998.92
2022,05,16,05,32,998.92
2022,05,16,05,33,998.92
2022,05,16,05,34,998.92
2022,05,16,05,35,998.92
2022,05,16,05,36,998.92
2022,05,16,05,37,998.92
2022,05,16,05,38,998.92
2022,05,16,05,39,998.92
2022,05,16,05,40,998.92
2022,05,16,05,41,998.92
2022,05,16,05,42,991.47
2022,05,16,05,43,991.50
2022,05,16,05,44,991.06
2022,05,16,05,45,991.06
2022,05,16,05,46,991.06
2022,05,16,05,47,991.06
2022,05,16,05,48,991.16
2022,05,16,05,49,993.23
2022,05,16,05,50,992.58
2022,05,16,05,51,992.58
2022,05,16,05,52,992.58
2022,05,16,05,53,992.58
2022,05,16,05,54,992.58
2022,05,16,05,55,992.58
2022,05,16,05,56,993.77
2022,05,16,05,57,993.77
2022,05,16,05,58,992.38
2022,05,16,05,59,992.38
2022,05,16,06,00,992.34
2022,05,16,06,01,991.57
2022,05,16,06,02,991.57
2022,05,16,06,03,991.57
2022,05,16,06,04,991.57
2022,05,16,06,05,990.36
2022,05,16,06,06,990.52
2022,05,16,06,07,990.55
2022,05,16,06,08,990.55
2022,05,16,06,09,990.55
2022,05,16,06,10,990.55
2022,05,16,06,11,990.55
2022,05,16,06,12,990.55
2022,05,16,06,13,994.45
2022,05,16,06,14,995.12
2022,05,16,06,15,995.12
2022,05,16,06,16,995.12
2022,05,16,06,17,995.12
2022,05,16,06,18,995.12
2022,05,16,06,19,995.12
2022,05,16,06,20,995.12
2022,05,16,06,21,995.12
2022,05,16,06,22,995.12
2022,05,16,06,23,995.12
2022,05,16,06,24,995.12
2022,05,16,06,25,995.12
2022,05,16,06,26,995.12
2022,05,16,06,27,995.12
2022,05,16,06,28,995.12
2022,05,16,06,29,994.55
2022,05,16,06,30,994.55
2022,05,16,06,31,993.36
2022,05,16,06,32,993.36
2022,05,16,06,33,993.36
2022,05,16,06,34,993.43
2022,05,16,06,35,993.43
2022,05,16,06,36,993.43
2022,05,16,06,37,993.43
2022,05,16,06,38,993.43
2022,05,16,06,39,993.43
2022,05,16,06,40,993.43
2022,05,16,06,41,993.43
2022,05,16,06,42,993.43
2022,05,16,06,43,993.43
2022,05,16,06,44,993.43
2022,05,16,06,45,993.43
2022,05,16,06,46,993.43
2022,05,16,06,47,985.41
2022,05,16,06,48,985.41
2022,05,16,06,49,985.41
2022,05,16,06,50,985.41
2022,05,16,06,51,985.41
2022,05,16,06,52,985.41
2022,05,16,06,53,985.41
2022,05,16,06,54,985.41
2022,05,16,06,55,984.15
2022,05,16,06,56,984.15
2022,05,16,06,57,984.15
2022,05,16,06,58,984.15
2022,05,16,06,59,984.15
2022,05,16,07,00,984.15
2022,05,16,07,01,984.15
2022,05,16,07,02,984.15
2022,05,16,07,03,984.12
2022,05,16,07,04,984.12
2022,05,16,07,05,984.12
2022,05,16,07,06,984.12
2022,05,16,07,07,984.12
2022,05,16,07,08,984.12
2022,05,16,07,09,984.12
2022,05,16,07,10,978.50
2022,05,16,07,11,978.50
2022,05,16,07,12,978.50
2022,05,16,07,13,978.50
2022,05,16,07,14,978.50
2022,05,16,07,15,978.50
2022,05,16,07,16,978.50
2022,05,16,07,17,978.50
2022,05,16,07,18,978.50
2022,05,16,07,19,978.50
2022,05,16,07,20,985.61
2022,05,16,07,21,985.61
2022,05,16,07,22,985.61
2022,05,16,07,23,985.61
2022,05,16,07,24,985.61
2022,05,16,07,25,985.61
2022,05,16,07,26,985.61
2022,05,16,07,27,985.61
2022,05,16,07,28,985.61
2022,05,16,07,29,985.61
2022,05,16,07,30,985.61
2022,05,16,07,31,985.61
2022,05,16,07,32,985.61
2022,05,16,07,33,985.61
2022,05,16,07,34,985.61
2022,05,16,07,35,987.54
2022,05,16,07,36,987.54
2022,05,16,07,37,992.96
2022,05,16,07,38,993.57
2022,05,16,07,39,993.57
2022,05,16,07,40,993.57
2022,05,16,07,41,993.57
2022,05,16,07,42,994.35
2022,05,16,07,43,994.35
2022,05,16,07,44,994.35
2022,05,16,07,45,994.35
2022,05,16,07,46,994.35
2022,05,16,07,47,994.35
2022,05,16,07,48,994.35
2022,05,16,07,49,994.35
2022,05,16,07,50,994.35
2022,05,16,07,51,994.35
2022,05,16,07,52,994.35
2022,05,16,07,53,994.35
2022,05,16,07,54,994.35
2022,05,16,07,55,994.35
2022,05,16,07,56,984.39
2022,05,16,07,57,984.39
2022,05,16,07,58,984.39
2022,05,16,07,59,984.39
2022,05,16,08,00,984.39
2022,05,16,08,01,984.39
2022,05,16,08,02,984.39
2022,05,16,08,03,984.39
2022,05,16,08,04,984.39
2022,05,16,08,05,984.39
2022,05,16,08,06,984.39
2022,05,16,08,07,984.39
2022,05,16,08,08,984.39
2022,05,16,08,09,977.11
2022,05,16,08,10,977.11
2022,05,16,08,11,977.11
2022,05,16,08,12,977.11
2022,05,16,08,13,977.11
2022,05,16,08,14,977.11
2022,05,16,08,15,977.11
2022,05,16,08,16,977.11
2022,05,16,08,17,977.11
2022,05,16,08,18,977.11
2022,05,16,08,19,977.11
2022,05,16,08,20,977.11
2022,05,16,08,21,977.11
2022,05,16,08,22,977.11
2022,05,16,08,23,977.11
2022,05,16,08,24,977.11
2022,05,16,08,25,977.11
2022,05,16,08,26,977.11
2022,05,16,08,27,977.11
2022,05,16,08,28,977.11
2022,05,16,08,29,977.11
2022,05,16,08,30,977.11
2022,05,16,08,31,977.11
2022,05,16,08,32,977.11
2022,05,16,08,33,977.11
2022,05,16,08,34,977.11
2022,05,16,08,35,977.11
2022,05,16,08,36,977.11
2022,05,16,08,37,977.11
2022,05,16,08,38,977.11
2022,05,16,08,39,977.11
2022,05,16,08,40,977.11
2022,05,16,08,41,977.11
2022,05,16,08,42,977.11
2022,05,16,08,43,977.11
2022,05,16,08,44,977.11
2022,05,16,08,45,977.11
2022,05,16,08,46,977.11
2022,05,16,08,47,977.11
2022,05,16,08,48,977.11
2022,05,16,08,49,977.11
2022,05,16,08,50,977.11
2022,05,16,08,51,977.11
2022,05,16,08,52,977.11
2022,05,16,08,53,955.47
2022,05,16,08,54,955.70
2022,05,16,08,55,955.71
2022,05,16,08,56,952.15
2022,05,16,08,57,952.15
2022,05,16,08,58,952.15
2022,05,16,08,59,952.15
2022,05,16,09,00,952.15
2022,05,16,09,01,952.15
2022,05,16,09,02,952.15
2022,05,16,09,03,952.15
2022,05,16,09,04,952.15
2022,05,16,09,05,952.15
2022,05,16,09,06,952.15
2022,05,16,09,07,952.15
2022,05,16,09,08,952.15
2022,05,16,09,09,952.15
2022,05,16,09,10,952.15
2022,05,16,09,11,952.15
2022,05,16,09,12,952.15
2022,05,16,09,13,952.15
2022,05,16,09,14,952.15
2022,05,16,09,15,952.15
2022,05,16,09,16,952.15
2022,05,16,09,17,952.15
2022,05,16,09,18,952.15
2022,05,16,09,19,952.15
2022,05,16,09,20,952.15
2022,05,16,09,21,952.15
2022,05,16,09,22,952.15
2022,05,16,09,23,952.15
2022,05,16,09,24,952.15
2022,05,16,09,25,952.15
2022,05,16,09,26,952.15
2022,05,16,09,27,952.15
2022,05,16,09,28,952.15
2022,05,16,09,29,952.15
2022,05,16,16,58,942.09
2022,05,16,16,59,942.09
2022,05,16,17,00,942.09
2022,05,16,17,01,942.09
2022,05,16,17,02,942.09
2022,05,16,17,03,942.09
2022,05,16,17,04,942.09
2022,05,16,17,05,942.09
2022,05,16,17,06,942.09
2022,05,16,17,07,942.09
2022,05,16,17,08,942.09
2022,05,16,17,09,942.09
2022,05,16,17,10,942.09
2022,05,16,17,11,942.09
2022,05,16,17,12,942.09
2022,05,16,17,13,942.09
2022,05,16,17,14,942.09
2022,05,16,17,15,942.09
2022,05,16,17,16,942.09
2022,05,16,17,17,942.09
2022,05,16,17,18,942.09
2022,05,16,17,19,942.09
2022,05,16,17,20,942.09
2022,05,16,17,21,942.09
2022,05,16,17,22,942.09
2022,05,16,17,23,942.09
2022,05,16,17,24,942.09
2022,05,16,17,25,942.09
2022,05,16,17,26,942.09
2022,05,16,17,27,942.09
2022,05,16,17,28,942.09
2022,05,16,17,29,942.09
2022,05,16,17,30,942.09
2022,05,16,17,31,942.09
2022,05,16,17,32,942.09
2022,05,16,17,33,942.09
2022,05,16,17,34,942.09
2022,05,16,17,35,942.09
2022,05,16,17,36,942.09
2022,05,16,17,37,942.09
2022,05,16,17,38,942.09
2022,05,16,17,39,942.09
2022,05,16,17,40,942.09
2022,05,16,17,41,942.09
2022,05,16,17,42,942.09
2022,05,16,17,43,942.09
2022,05,16,17,44,942.09
2022,05,16,17,45,942.09
2022,05,16,17,46,942.09
2022,05,16,17,47,942.09
2022,05,16,17,48,942.09
2022,05,16,17,49,950.18
2022,05,16,17,50,951.61
2022,05,16,17,51,951.61
2022,05,16,17,52,951.61
2022,05,16,17,53,951.61
2022,05,16,17,54,951.61
2022,05,16,17,55,951.61
2022,05,16,17,56,951.61
2022,05,16,17,57,951.61
2022,05,16,17,58,951.61
2022,05,16,17,59,951.61
2022,05,16,18,00,951.61
2022,05,16,18,01,951.61
2022,05,16,18,02,951.61
2022,05,16,18,03,951.61
2022,05,16,18,04,951.61
2022,05,16,18,05,951.61
2022,05,16,18,06,951.61
2022,05,16,18,07,951.61
2022,05,16,18,08,951.61
2022,05,16,18,09,951.61
2022,05,16,18,10,951.61
2022,05,16,18,11,951.61
2022,05,16,18,12,951.61
2022,05,16,18,13,951.61
2022,05,16,18,14,951.61
2022,05,16,18,15,951.61
2022,05,16,18,16,951.61
2022,05,16,18,17,951.61
2022,05,16,18,18,951.61
2022,05,16,18,19,951.61
2022,05,16,18,20,951.61
2022,05,16,18,21,951.61
2022,05,16,18,22,951.61
2022,05,16,18,23,951.61
2022,05,16,18,24,951.61
2022,05,16,18,25,951.61
2022,05,16,18,26,951.61
2022,05,16,18,27,951.61
2022,05,16,18,28,951.61
2022,05,16,18,29,951.61
2022,05,16,18,30,951.61
2022,05,16,18,31,951.61
2022,05,16,18,32,951.61
2022,05,16,18,33,951.61
2022,05,16,18,34,951.61
2022,05,16,18,35,951.61
2022,05,16,18,36,951.61
2022,05,16,18,37,951.61
2022,05,16,18,38,951.61
2022,05,16,18,39,951.61
2022,05,16,18,40,951.61
2022,05,16,18,41,951.61
2022,05,16,18,42,951.61
2022,05,16,18,43,951.61
2022,05,16,18,44,985.29
2022,05,16,18,45,991.23
2022,05,16,18,46,982.85
2022,05,16,18,47,981.92
2022,05,16,18,48,981.92
2022,05,16,18,49,981.92
2022,05,16,18,50,981.92
2022,05,16,18,51,981.92
2022,05,16,18,52,981.92
2022,05,16,18,53,988.29
2022,05,16,18,54,989.00
2022,05,16,18,55,987.87
2022,05,16,18,56,987.74
2022,05,16,18,57,987.74
2022,05,16,18,58,987.74
2022,05,16,18,59,986.65
2022,05,16,19,00,986.46
2022,05,16,19,01,986.46
2022,05,16,19,02,986.46
2022,05,16,19,03,986.46
2022,05,16,19,04,986.46
2022,05,16,19,05,986.46
2022,05,16,19,06,986.46
2022,05,16,19,07,986.46
2022,05,16,19,08,986.46
2022,05,16,19,09,986.46
2022,05,16,19,10,986.46
2022,05,16,19,11,980.50
2022,05,16,19,12,979.59
2022,05,16,19,13,979.61
2022,05,16,19,14,979.61
2022,05,16,19,15,979.61
2022,05,16,19,16,979.61
2022,05,16,19,17,979.61
2022,05,16,19,18,979.61
2022,05,16,19,19,979.61
2022,05,16,19,20,979.61
2022,05,16,19,21,979.61
2022,05,16,19,22,979.61
2022,05,16,19,23,979.61
2022,05,16,19,24,979.61
2022,05,16,19,25,979.61
2022,05,16,19,26,979.61
2022,05,16,19,27,979.61
2022,05,16,19,28,979.61
2022,05,16,19,29,979.61
2022,05,16,19,30,979.61
2022,05,16,19,31,979.61
2022,05,16,19,32,979.61
2022,05,16,19,33,979.61
2022,05,16,19,34,979.61
2022,05,16,19,35,979.61
2022,05,16,19,36,979.61
2022,05,16,19,37,979.61
2022,05,16,19,38,979.61
2022,05,16,19,39,979.61
2022,05,16,19,40,979.61
2022,05,16,19,41,985.60
2022,05,16,19,42,986.66
2022,05,16,19,43,986.66
2022,05,16,19,44,986.66
2022,05,16,19,45,986.66
2022,05,16,19,46,986.66
2022,05,16,19,47,986.66
2022,05,16,19,48,986.66
2022,05,16,19,49,986.66
2022,05,16,19,50,986.66
2022,05,16,19,51,986.66
2022,05,16,19,52,986.66
2022,05,16,19,53,986.66
2022,05,16,19,54,986.66
2022,05,16,19,55,997.78
2022,05,16,19,56,999.09
2022,05,16,19,57,999.09
2022,05,16,19,58,1002.87
2022,05,16,19,59,1003.78
2022,05,16,20,00,1004.26
2022,05,16,20,01,1004.34
2022,05,16,20,02,1004.34
2022,05,16,20,03,1004.34
2022,05,16,20,04,1003.87
2022,05,16,20,05,1003.82
2022,05,16,20,06,1003.46
2022,05,16,20,07,1003.39
2022,05,16,20,08,1003.39
2022,05,16,20,09,1003.39
2022,05,16,20,10,1003.39
2022,05,16,20,11,1003.39
2022,05,16,20,12,999.24
2022,05,16,20,13,998.75
2022,05,16,20,14,998.75
2022,05,16,20,15,998.75
2022,05,16,20,16,998.75
2022,05,16,20,17,998.75
2022,05,16,20,18,998.75
2022,05,16,20,19,998.75
2022,05,16,20,20,998.75
2022,05,16,20,21,998.75
2022,05,16,20,22,998.75
2022,05,16,20,23,998.75
2022,05,16,20,24,998.75
2022,05,16,20,25,998.75
2022,05,16,20,26,998.75
2022,05,16,20,27,998.75
2022,05,16,20,28,1007.67
2022,05,16,20,29,1009.25
2022,05,16,20,30,1008.93
2022,05,16,20,31,1009.05
2022,05,16,20,32,1009.08
2022,05,16,20,33,1009.08
2022,05,16,20,34,1009.50
2022,05,16,20,35,1009.55
2022,05,16,20,36,1009.55
2022,05,16,20,37,1009.55
2022,05,16,20,38,1009.55
2022,05,16,20,39,1005.38
2022,05,16,20,40,1004.64
2022,05,16,20,41,1004.64
2022,05,16,20,42,1004.64
2022,05,16,20,43,1004.64
2022,05,16,20,44,1004.64
2022,05,16,20,45,1004.64
2022,05,16,20,46,1004.64
2022,05,16,20,47,1004.64
2022,05,16,20,48,1004.64
2022,05,16,20,49,1017.01
2022,05,16,20,50,1018.46
2022,05,16,20,51,1018.09
2022,05,16,20,52,1018.02
2022,05,16,20,53,1018.02
2022,05,16,20,54,1018.02
2022,05,16,20,55,1018.02
2022,05,16,20,56,1018.02
2022,05,16,20,57,1018.02
2022,05,16,20,58,1018.02
2022,05,16,20,59,1018.02
2022,05,16,21,00,1013.58
2022,05,16,21,01,1012.80
2022,05,16,21,02,1012.80
2022,05,16,21,03,1013.58
2022,05,16,21,04,1013.72
2022,05,16,21,05,1018.73
2022,05,16,21,06,1019.61
2022,05,16,21,07,1021.19
2022,05,16,21,08,1021.47
2022,05,16,21,09,1021.47
2022,05,16,21,10,1021.47
2022,05,16,21,11,1021.47
2022,05,16,21,12,1021.47
2022,05,16,21,13,1021.47
2022,05,16,21,14,1011.34
2022,05,16,21,15,1010.01
2022,05,16,21,16,1010.09
2022,05,16,21,17,1012.42
2022,05,16,21,18,1013.00
2022,05,16,21,19,1013.00
2022,05,16,21,20,1013.00
2022,05,16,21,21,1013.00
2022,05,16,21,22,1013.00
2022,05,16,21,23,1013.00
2022,05,16,21,24,1019.83
2022,05,16,21,25,1021.52
2022,05,16,21,26,1021.66
2022,05,16,21,27,1021.62
2022,05,16,21,28,1021.27
2022,05,16,21,29,1021.60
2022,05,16,21,30,1021.64
2022,05,16,21,31,1021.64
2022,05,16,21,32,1021.50
2022,05,16,21,33,1021.61
2022,05,16,21,34,1021.64
2022,05,16,21,35,1021.50
2022,05,16,21,36,1021.64
2022,05,16,21,37,1021.67
2022,05,16,21,38,1021.73
2022,05,16,21,39,1021.71
2022,05,16,21,40,1021.71
2022,05,16,21,41,1021.71
2022,05,16,21,42,1021.71
2022,05,16,21,43,1021.74
2022,05,16,21,44,1021.77
2022,05,16,21,45,1021.78
2022,05,16,21,46,1021.81
2022,05,16,21,47,1021.84
2022,05,16,21,48,1021.81
2022,05,16,21,49,1021.84
2022,05,16,21,50,1021.81
2022,05,16,21,51,1021.84
2022,05,16,21,52,1021.81
2022,05,16,21,53,1021.78
2022,05,16,21,54,1021.86
2022,05,16,21,55,1021.82
2022,05,16,21,56,1021.84
2022,05,16,21,57,1021.84
2022,05,16,21,58,1021.84
2022,05,16,21,59,1021.87
2022,05,16,22,00,1021.82
2022,05,16,22,01,1021.81
2022,05,16,22,02,1021.81
2022,05,16,22,03,1021.78
2022,05,16,22,04,1021.81
2022,05,16,22,05,1021.81
2022,05,16,22,06,1021.81
2022,05,16,22,07,1021.81
2022,05,16,22,08,1021.75
2022,05,16,22,09,1021.72
2022,05,16,22,10,1021.71
2022,05,16,22,11,1021.71
2022,05,16,22,12,1021.74
2022,05,16,22,13,1021.72
2022,05,16,22,14,1021.65
2022,05,16,22,15,1021.67
2022,05,16,22,16,1021.67
2022,05,16,22,17,1021.67
2022,05,16,22,18,1021.67
2022,05,16,22,19,1021.64
2022,05,16,22,20,1021.64
2022,05,16,22,21,1021.64
2022,05,16,22,22,1021.64
2022,05,16,22,23,1021.67
2022,05,16,22,24,1021.67
2022,05,16,22,25,1021.64
2022,05,16,22,26,1021.66
2022,05,16,22,27,1021.67
2022,05,16,22,28,1021.64
2022,05,16,22,29,1021.67
2022,05,16,22,30,1021.64
2022,05,16,22,31,1021.64
2022,05,16,22,32,1021.67
2022,05,16,22,33,1021.67
2022,05,16,22,34,1021.67
2022,05,16,22,35,1021.67
2022,05,16,22,36,1021.67
2022,05,16,22,37,1021.64
2022,05,16,22,38,1021.64
2022,05,16,22,39,1021.67
2022,05,16,22,40,1021.70
2022,05,16,22,41,1021.68
2022,05,16,22,42,1021.70
2022,05,16,22,43,1021.68
2022,05,16,22,44,1021.70
2022,05,16,22,45,1021.71
2022,05,16,22,46,1021.74
2022,05,16,22,47,1021.74
2022,05,16,22,48,1021.77
2022,05,16,22,49,1021.81
2022,05,16,22,50,1021.81
2022,05,16,22,51,1021.78
2022,05,16,22,52,1021.78
2022,05,16,22,53,1021.75
2022,05,16,22,54,1021.77
2022,05,16,22,55,1021.81
2022,05,16,22,56,1021.81
2022,05,16,22,57,1021.81
2022,05,16,22,58,1021.81
2022,05,16,22,59,1021.79
2022,05,16,23,00,1021.80
2022,05,16,23,01,1021.78
2022,05,16,23,02,1021.83
2022,05,16,23,03,1021.84
2022,05,16,23,04,1021.87
2022,05,16,23,05,1021.82
2022,05,16,23,06,1021.84
2022,05,16,23,07,1021.84
2022,05,16,23,08,1021.87
2022,05,16,23,09,1021.88
2022,05,16,23,10,1021.82
2022,05,16,23,11,1021.84
2022,05,16,23,12,1021.84
2022,05,16,23,13,1021.90
2022,05,16,23,14,1021.85
2022,05,16,23,15,1021.90
2022,05,16,23,16,1021.85
2022,05,16,23,17,1021.84
2022,05,16,23,18,1021.81
2022,05,16,23,19,1021.81
2022,05,16,23,20,1021.81
2022,05,16,23,21,1021.87
2022,05,16,23,22,1021.88
2022,05,16,23,23,1021.88
2022,05,16,23,24,1021.88
2022,05,16,23,25,1021.97
2022,05,16,23,26,1021.95
2022,05,16,23,27,1021.94
2022,05,16,23,28,1021.94
2022,05,16,23,29,1021.97
2022,05,16,23,30,1022.04
2022,05,16,23,31,1022.05
2022,05,16,23,32,1022.02
2022,05,16,23,33,1022.01
2022,05,16,23,34,1022.04
2022,05,16,23,35,1022.02
2022,05,16,23,36,1022.07
2022,05,16,23,37,1022.08
2022,05,16,23,38,1022.08
2022,05,16,23,39,1022.08
2022,05,16,23,40,1022.08
2022,05,16,23,41,1022.14
2022,05,16,23,42,1022.12
2022,05,16,23,43,1022.08
2022,05,16,23,44,1022.11
2022,05,16,23,45,1022.11
2022,05,16,23,46,1022.11
2022,05,16,23,47,1022.11
2022,05,16,23,48,1022.09
2022,05,16,23,49,1022.11
2022,05,16,23,50,1022.11
2022,05,16,23,51,1022.17
2022,05,16,23,52,1022.18
2022,05,16,23,53,1022.18
2022,05,16,23,54,1022.18
2022,05,16,23,55,1022.18
2022,05,16,23,56,1022.21
2022,05,16,23,57,1022.19